"Period start","avg(HW err(1)/warn(2) (#))","avg(Visibility (m))","avg(Weather code (#))","avg(Precip intensity (mm/h))","min(HW err(1)/warn(2) (#))","max(HW err(1)/warn(2) (#))","std(HW err(1)/warn(2) (#))","med(HW err(1)/warn(2) (#))","min(Visibility (m))","max(Visibility (m))","std(Visibility (m))","med(Visibility (m))","min(Weather code (#))","max(Weather code (#))","std(Weather code (#))","med(Weather code (#))","min(Precip intensity (mm/h))","max(Precip intensity (mm/h))","std(Precip intensity (mm/h))","med(Precip intensity (mm/h))"
2014-08-26 00:00:00,0,48411,0,0.00,0,0,0,0,42418,50000,2360,49792,0,0,0,0,0.00,0.00,0.00,0.00
2014-08-26 00:10:00,0,46296,0,0.00,0,0,0,0,39486,50000,3861,47110,0,0,0,0,0.00,0.00,0.00,0.00
2014-08-26 00:20:00,0,48247,0,0.00,0,0,0,0,44213,50000,2354,50000,0,0,0,0,0.00,0.00,0.00,0.00
2014-08-26 00:30:00,0,43313,0,0.00,0,2,1,0,37292,49811,3586,43338,0,0,0,0,0.00,0.00,0.00,0.00
2014-08-26 00:40:00,0,49356,0,0.00,0,0,0,0,46373,50000,1066,49768,0,0,0,0,0.00,0.00,0.00,0.00
2014-08-26 00:50:00,0,31452,0,0.00,0,0,0,0,19911,50000,8959,28669,0,0,0,0,0.00,0.00,0.00,0.00
2014-08-26 01:00:00,0,33601,0,0.00,0,0,0,0,19974,42423,7497,34219,0,0,0,0,0.00,0.00,0.00,0.00
2014-08-26 01:10:00,0,34152,0,0.00,0,0,0,0,26563,45703,5488,33456,0,0,0,0,0.00,0.00,0.00,0.00
2014-08-26 01:20:00,1,33891,0,0.00,0,2,1,0,20911,40835,5707,33584,0,0,0,0,0.00,0.00,0.00,0.00
2014-08-26 01:30:00,1,38147,0,0.00,0,2,1,0,27480,50000,8062,39968,0,0,0,0,0.00,0.00,0.00,0.00
2014-08-26 01:40:00,0,37978,0,0.00,0,0,0,0,30070,50000,5485,37950,0,0,0,0,0.00,0.00,0.00,0.00
2014-08-26 01:50:00,0,38981,0,0.00,0,0,0,0,24144,50000,9150,37515,0,0,0,0,0.00,0.00,0.00,0.00
"Period start","avg(HW err(1)/warn(2) (#))","avg(Visibility (m))","avg(Weather code (#))","avg(Precip intensity (mm/h))","min(HW err(1)/warn(2) (#))","max(HW err(1)/warn(2) (#))","std(HW err(1)/warn(2) (#))","med(HW err(1)/warn(2) (#))","min(Visibility (m))","max(Visibility (m))","std(Visibility (m))","med(Visibility (m))","min(Weather code (#))","max(Weather code (#))","std(Weather code (#))","med(Weather code (#))","min(Precip intensity (mm/h))","max(Precip intensity (mm/h))","std(Precip intensity (mm/h))","med(Precip intensity (mm/h))"
2014-08-26 07:20:00,2,26308,0,0.00,2,2,0,2,20847,43249,6822,23938,0,0,0,0,0.00,0.00,0.00,0.00
2014-08-26 07:30:00,2,25592,0,0.00,0,2,1,2,22862,32166,2595,25656,0,0,0,0,0.00,0.00,0.00,0.00
2014-08-26 07:40:00,0,22368,0,0.00,0,0,0,0,19584,24491,1356,22228,0,0,0,0,0.00,0.00,0.00,0.00
2014-08-26 07:50:00,0,22906,0,0.00,0,0,0,0,19905,27564,1989,22828,0,0,0,0,0.00,0.00,0.00,0.00
2014-08-26 08:00:00,0,21147,0,0.00,0,0,0,0,18972,23951,1540,20794,0,0,0,0,0.00,0.00,0.00,0.00
2014-08-26 08:10:00,0,21867,0,0.00,0,0,0,0,18743,27592,2448,21494,0,0,0,0,0.00,0.00,0.00,0.00
2014-08-26 08:20:00,0,21577,0,0.00,0,0,0,0,18882,25726,1963,21868,0,0,0,0,0.00,0.00,0.00,0.00
2014-08-26 08:30:00,0,23166,0,0.00,0,0,0,0,18491,28708,3083,22791,0,0,0,0,0.00,0.00,0.00,0.00
2014-08-26 08:40:00,0,22697,0,0.00,0,0,0,0,20001,26399,1982,23288,0,0,0,0,0.00,0.00,0.00,0.00
2014-08-26 08:50:00,0,25918,0,0.00,0,0,0,0,24303,28654,1558,25229,0,0,0,0,0.00,0.00,0.00,0.00
2014-08-26 09:00:00,0,28102,0,0.00,0,0,0,0,22085,35226,3916,27975,0,0,0,0,0.00,0.00,0.00,0.00
2014-08-26 09:10:00,0,28879,0,0.00,0,0,0,0,23425,31571,2569,29190,0,0,0,0,0.00,0.00,0.00,0.00
2014-08-26 09:20:00,0,30468,0,0.00,0,0,0,0,23318,39386,4900,29868,0,0,0,0,0.00,0.00,0.00,0.00
2014-08-26 09:30:00,0,41792,0,0.00,0,0,0,0,33816,48705,4463,42468,0,0,0,0,0.00,0.00,0.00,0.00
2014-08-26 09:40:00,0,43535,0,0.00,0,0,0,0,38318,50000,4090,42313,0,0,0,0,0.00,0.00,0.00,0.00
2014-08-26 09:50:00,0,37647,0,0.00,0,0,0,0,33787,44000,2525,37078,0,0,0,0,0.00,0.00,0.00,0.00
2014-08-26 10:00:00,0,39213,0,0.00,0,0,0,0,35959,44678,2925,38370,0,0,0,0,0.00,0.00,0.00,0.00
2014-08-26 10:10:00,0,42484,0,0.00,0,0,0,0,37032,48387,3339,41054,0,0,0,0,0.00,0.00,0.00,0.00
2014-08-26 10:20:00,0,37825,0,0.00,0,0,0,0,20541,49590,8598,39838,0,0,0,0,0.00,0.00,0.00,0.00
2014-08-26 10:30:00,0,39253,0,0.00,0,0,0,0,34761,45973,3729,38834,0,0,0,0,0.00,0.00,0.00,0.00
2014-08-26 10:40:00,0,41014,0,0.00,0,0,0,0,37426,46498,2945,40200,0,0,0,0,0.00,0.00,0.00,0.00
2014-08-26 10:50:00,0,40628,0,0.00,0,0,0,0,31650,46391,4972,40853,0,0,0,0,0.00,0.00,0.00,0.00
2014-08-26 11:00:00,0,40428,0,0.00,0,0,0,0,35194,47958,4188,39678,0,0,0,0,0.00,0.00,0.00,0.00
2014-08-26 11:10:00,0,40870,0,0.00,0,0,0,0,38213,46085,2164,40448,0,0,0,0,0.00,0.00,0.00,0.00
2014-08-26 11:20:00,0,38244,0,0.00,0,0,0,0,30041,45516,4708,36872,0,0,0,0,0.00,0.00,0.00,0.00
2014-08-26 11:30:00,0,47787,0,0.00,0,0,0,0,40186,50000,3539,50000,0,0,0,0,0.00,0.00,0.00,0.00
2014-08-26 11:40:00,0,43869,0,0.00,0,0,0,0,34448,50000,4851,45084,0,0,0,0,0.00,0.00,0.00,0.00
2014-08-26 11:50:00,0,43463,0,0.00,0,0,0,0,37170,48302,4062,43052,0,0,0,0,0.00,0.00,0.00,0.00
2014-08-26 12:00:00,0,46814,0,0.00,0,0,0,0,38834,50000,3398,48038,0,0,0,0,0.00,0.00,0.00,0.00
2014-08-26 12:10:00,0,38700,0,0.00,0,0,0,0,34396,45448,3023,37954,0,0,0,0,0.00,0.00,0.00,0.00
2014-08-26 12:20:00,0,32620,0,0.00,0,0,0,0,29203,37032,1871,32466,0,0,0,0,0.00,0.00,0.00,0.00
2014-08-26 12:30:00,0,23716,0,0.00,0,0,0,0,19086,32575,4425,22638,0,0,0,0,0.00,0.00,0.00,0.00
2014-08-26 12:40:00,0,30981,0,0.00,0,0,0,0,21826,41160,5669,30626,0,0,0,0,0.00,0.00,0.00,0.00
2014-08-26 12:50:00,0,37209,0,0.00,0,0,0,0,29586,45391,4842,38376,0,0,0,0,0.00,0.00,0.00,0.00
2014-08-26 13:00:00,0,40190,0,0.00,0,0,0,0,33397,45549,4466,41832,0,0,0,0,0.00,0.00,0.00,0.00
2014-08-26 13:10:00,0,36156,0,0.00,0,0,0,0,28926,39721,3329,37230,0,0,0,0,0.00,0.00,0.00,0.00
2014-08-26 13:20:00,0,43087,0,0.00,0,0,0,0,36915,50000,4063,44368,0,0,0,0,0.00,0.00,0.00,0.00
2014-08-26 13:30:00,0,30115,0,0.00,0,0,0,0,25651,35196,2778,29984,0,0,0,0,0.00,0.00,0.00,0.00
2014-08-26 13:40:00,0,33917,0,0.00,0,0,0,0,30636,36123,1559,34065,0,0,0,0,0.00,0.00,0.00,0.00
2014-08-26 13:50:00,0,34258,0,0.00,0,0,0,0,28319,38706,3142,34655,0,0,0,0,0.00,0.00,0.00,0.00
2014-08-26 14:00:00,0,32972,0,0.00,0,0,0,0,23137,42209,6321,34114,0,0,0,0,0.00,0.00,0.00,0.00
2014-08-26 14:10:00,0,44702,0,0.00,0,0,0,0,26019,50000,7388,48314,0,0,0,0,0.00,0.00,0.00,0.00
2014-08-26 14:20:00,0,45636,0,0.00,0,0,0,0,34369,50000,5592,48428,0,0,0,0,0.00,0.00,0.00,0.00
2014-08-26 14:30:00,0,49800,0,0.00,0,0,0,0,48858,50000,357,50000,0,0,0,0,0.00,0.00,0.00,0.00
2014-08-26 14:40:00,0,50000,0,0.00,0,0,0,0,50000,50000,0,50000,0,0,0,0,0.00,0.00,0.00,0.00
2014-08-26 14:50:00,0,50000,0,0.00,0,0,0,0,50000,50000,0,50000,0,0,0,0,0.00,0.00,0.00,0.00
2014-08-26 15:00:00,0,50000,0,0.00,0,0,0,0,50000,50000,0,50000,0,0,0,0,0.00,0.00,0.00,0.00
2014-08-26 15:10:00,0,50000,0,0.00,0,0,0,0,50000,50000,0,50000,0,0,0,0,0.00,0.00,0.00,0.00
2014-08-26 15:20:00,0,49809,0,0.00,0,0,0,0,48092,50000,572,50000,0,0,0,0,0.00,0.00,0.00,0.00
2014-08-26 15:30:00,0,50000,0,0.00,0,0,0,0,50000,50000,0,50000,0,0,0,0,0.00,0.00,0.00,0.00
2014-08-26 15:40:00,0,47800,0,0.00,0,0,0,0,34391,50000,4854,50000,0,0,0,0,0.00,0.00,0.00,0.00
2014-08-26 15:50:00,0,20679,53,1.71,0,0,0,0,9000,46420,10871,17128,0,61,18,61,0.00,8.35,2.30,1.15
2014-08-26 16:00:00,0,16228,61,2.04,0,0,0,0,12318,24201,3392,15876,61,61,0,61,0.00,7.45,2.26,0.85
2014-08-26 16:10:00,0,26957,0,0.00,0,0,0,0,17740,32319,5021,29488,0,0,0,0,0.00,0.00,0.00,0.00
2014-08-26 16:20:00,0,20211,41,1.23,0,0,0,0,17737,25153,2585,18724,0,61,27,56,0.00,4.90,1.59,0.30
2014-08-26 16:30:00,0,14424,61,9.79,0,0,0,0,6510,21858,4995,14119,61,63,1,61,0.00,47.40,14.02,3.62
2014-08-26 16:40:00,0,18945,47,0.17,0,0,0,0,14760,24065,2457,18554,0,61,24,61,0.00,0.50,0.16,0.15
2014-08-26 16:50:00,0,9746,55,14.75,0,0,0,0,5450,21309,4381,9378,0,62,18,62,0.00,34.70,11.12,11.45
2014-08-26 17:00:00,1,21001,61,2.82,0,2,1,0,11022,34480,6870,19453,61,62,0,61,0.25,16.35,4.94,0.50
2014-08-26 17:10:00,2,23261,61,1.42,2,2,0,2,12987,37148,8780,19487,61,61,0,61,0.00,8.00,2.26,0.98
2014-08-26 17:20:00,2,27348,61,0.71,2,2,0,2,13072,49590,13101,23785,61,61,0,61,0.00,1.95,0.59,0.78
2014-08-26 17:30:00,2,50000,0,0.00,2,2,0,2,50000,50000,0,50000,0,0,0,0,0.00,0.00,0.00,0.00
2014-08-26 17:40:00,2,50000,0,0.00,2,2,0,2,50000,50000,0,50000,0,0,0,0,0.00,0.00,0.00,0.00
2014-08-26 17:50:00,2,50000,0,0.00,2,2,0,2,50000,50000,0,50000,0,0,0,0,0.00,0.00,0.00,0.00
2014-08-26 18:00:00,2,50000,0,0.00,2,2,0,2,50000,50000,0,50000,0,0,0,0,0.00,0.00,0.00,0.00
2014-08-26 18:10:00,2,49947,0,0.00,2,2,0,2,49473,50000,158,50000,0,0,0,0,0.00,0.00,0.00,0.00
2014-08-26 18:20:00,2,49666,0,0.00,2,2,0,2,46950,50000,909,50000,0,0,0,0,0.00,0.00,0.00,0.00
2014-08-26 18:30:00,2,25674,0,0.00,2,2,0,2,19140,36511,5243,24585,0,0,0,0,0.00,0.00,0.00,0.00
2014-08-26 18:40:00,2,23518,0,0.00,2,2,0,2,17624,36845,5698,22942,0,0,0,0,0.00,0.00,0.00,0.00
2014-08-26 18:50:00,2,23036,0,0.00,2,2,0,2,19700,28277,2323,22684,0,0,0,0,0.00,0.00,0.00,0.00
2014-08-26 19:00:00,2,29201,0,0.00,2,2,0,2,25220,33810,2085,28712,0,0,0,0,0.00,0.00,0.00,0.00
2014-08-26 19:10:00,2,25076,0,0.00,2,2,0,2,15908,33229,6435,26143,0,0,0,0,0.00,0.00,0.00,0.00
2014-08-26 19:20:00,2,34130,0,0.00,0,2,1,2,27077,44275,5569,32866,0,0,0,0,0.00,0.00,0.00,0.00
2014-08-26 19:30:00,0,37036,0,0.00,0,0,0,0,29499,45987,5855,36967,0,0,0,0,0.00,0.00,0.00,0.00
2014-08-26 19:40:00,0,43839,0,0.00,0,0,0,0,35615,50000,5599,43928,0,0,0,0,0.00,0.00,0.00,0.00
2014-08-26 19:50:00,0,41748,0,0.00,0,0,0,0,25672,50000,8914,44962,0,0,0,0,0.00,0.00,0.00,0.00
2014-08-26 20:00:00,0,49561,0,0.00,0,0,0,0,45852,50000,1238,50000,0,0,0,0,0.00,0.00,0.00,0.00
2014-08-26 20:10:00,0,50000,0,0.00,0,0,0,0,50000,50000,0,50000,0,0,0,0,0.00,0.00,0.00,0.00
2014-08-26 20:20:00,0,49818,0,0.00,0,0,0,0,48184,50000,545,50000,0,0,0,0,0.00,0.00,0.00,0.00
2014-08-26 20:30:00,0,49178,0,0.00,0,0,0,0,45483,50000,1654,50000,0,0,0,0,0.00,0.00,0.00,0.00
2014-08-26 20:40:00,0,44359,0,0.00,0,0,0,0,34486,50000,6035,46048,0,0,0,0,0.00,0.00,0.00,0.00
2014-08-26 20:50:00,0,19899,0,0.00,0,0,0,0,7949,45234,13603,11227,0,0,0,0,0.00,0.00,0.00,0.00
2014-08-26 21:00:00,1,10672,0,0.00,0,2,1,0,5579,14428,2675,11207,0,0,0,0,0.00,0.00,0.00,0.00
2014-08-26 21:10:00,2,7002,8,0.00,0,2,1,2,5010,9471,1474,6954,0,10,4,10,0.00,0.00,0.00,0.00
2014-08-26 21:20:00,2,6478,10,0.00,2,2,0,2,4986,7671,847,6585,10,10,0,10,0.00,0.00,0.00,0.00
2014-08-26 21:30:00,2,6360,10,0.00,2,2,0,2,4232,8067,1295,6936,10,10,0,10,0.00,0.00,0.00,0.00
2014-08-26 21:40:00,2,11976,10,0.00,2,2,0,2,10731,14372,1241,11669,10,10,0,10,0.00,0.00,0.00,0.00
2014-08-26 21:50:00,2,17023,1,0.00,2,2,0,2,13221,20340,1967,16972,0,10,3,0,0.00,0.00,0.00,0.00
2014-08-26 22:00:00,2,31669,0,0.00,2,2,0,2,16480,50000,12855,28652,0,0,0,0,0.00,0.00,0.00,0.00
2014-08-26 22:10:00,2,31557,0,0.00,0,2,1,2,24986,43287,5357,30684,0,0,0,0,0.00,0.00,0.00,0.00
2014-08-26 22:20:00,2,49847,0,0.00,2,2,0,2,48569,50000,427,50000,0,0,0,0,0.00,0.00,0.00,0.00
2014-08-26 22:30:00,2,50000,0,0.00,0,2,1,2,50000,50000,0,50000,0,0,0,0,0.00,0.00,0.00,0.00
2014-08-26 22:40:00,2,50000,0,0.00,2,2,0,2,50000,50000,0,50000,0,0,0,0,0.00,0.00,0.00,0.00
2014-08-26 22:50:00,2,50000,0,0.00,2,2,0,2,50000,50000,0,50000,0,0,0,0,0.00,0.00,0.00,0.00
2014-08-26 23:00:00,2,50000,0,0.00,2,2,0,2,50000,50000,0,50000,0,0,0,0,0.00,0.00,0.00,0.00
2014-08-26 23:10:00,2,49748,0,0.00,0,2,1,2,48525,50000,513,50000,0,0,0,0,0.00,0.00,0.00,0.00
2014-08-26 23:20:00,0,49973,0,0.00,0,2,1,0,49730,50000,81,50000,0,0,0,0,0.00,0.00,0.00,0.00
2014-08-26 23:30:00,0,49559,0,0.00,0,0,0,0,46567,50000,1039,50000,0,0,0,0,0.00,0.00,0.00,0.00
2014-08-26 23:40:00,0,33628,0,0.00,0,0,0,0,25723,42387,4210,33720,0,0,0,0,0.00,0.00,0.00,0.00
2014-08-26 23:50:00,0,34985,0,0.00,0,0,0,0,24433,47702,7538,33943,0,0,0,0,0.00,0.00,0.00,0.00
